User: anonymous   Login
Location: �chenoz-la-M�line
(47.6009°N, 6.1354°E)
Time: 16:09:15
(UTC+00:00)
Language:

Cosmos 2084 Rocket - Orbit

View from above orbital plane
View from above orbital plane
View from above satellite
View from above satellite

Ground track
Ground track

The orbit data is extracted from the following two-line orbital elements,

1 20666U 90055D   21108.17493863  .00000045  00000-0  22247-4 0  9992
2 20666  62.7839 146.3297 0090415  28.0051 332.5865 14.92468088670245
Epoch (UTC): 18 April 2021 04:11:54
Eccentricity: 0.0090415
inclination: 62.7839°
perigee height: 527 km
apogee height: 653 km
right ascension of ascending node: 146.3297°
argument of perigee: 28.0051°
revolutions per day: 14.92468088
mean anomaly at epoch: 332.5865°
orbit number at epoch: 67024

The dashed part of the orbit path shows where the satellite is in the earth's shadow,  

DLR